Location: Celina Division
(33.3022°N, 96.7580°W)
Time: 08:20:22
(UTC+00:00)

ADEOS - Pass Details

Date: 08 December 2021
Orbit: 792 x 795 km, 98.9° (Epoch: 17 January)

Event Time Altitude Azimuth Distance (km) Brightness Sun altitude
Rises 12:35:11 0° 2° (N) 3,299 6.6 -9.1°
Reaches altitude 10° 12:37:40 10° 354° (N) 2,366 5.8 -8.6°
Maximum altitude 12:42:23 36° 290° (WNW) 1,237 4.1 -7.7°
Drops below altitude 10° 12:47:06 10° 224° (SW) 2,352 5.8 -6.8°
Sets 12:49:34 0° 216° (SW) 3,277 6.6 -6.3°
